Starlink 32584

operational
NORAD ID: 62179 Int'l Des: 2024-225 Owner: SPXS Country: US Constellation: starlink
LEOCIRCULAR

Über Starlink 32584

Beschreibung wird geladen...

Live-Position

3D-Globus wird geladen...

Nächste Überflüge

Höhenverlauf

Altitude vs Time

uPlot chart will show altitude changes over time

Zweizeiliger Elementsatz

1 62179U 24225S 26035.03012085 .00007255 00000-0 61510-3 0 9990
2 62179 69.9988 249.2348 0002417 277.9363 82.1522 14.98335484 64839
Epoch: 4. Feb. 2026 • Age: 12 hours

Aktueller Status

Höhe 584.1 km
Geschwindigkeit 7.57 km/s
Subsatellitenpunkt 64.17°N, 58.72°E
Startdatum 30. Nov. 2024
Alter 1.1 years
Typ internet

Technische Details

Klassifizierung Payload
Masse 730.00 kg
Trockenmasse 700.00 kg
Gesamtmasse 730.00 kg
Länge 0.30 m
Durchmesser 4.10 m
Spannweite 29.00 m
Form Box + pan
Hersteller SPXS
Bus-Typ Starlink V2M
Phasenstatus In Orbit
Besitzer/Staat SPXS/US

Große Konstellationen

Loading constellations...